SHIYAN 10 (SY-10) (49258 NORAD) Tracking and Keplerian Element Data

This shows tracking and keplerian element data for the satellite.

Feedback or suggestion? Click here.




ElementValue
Catalog49258
NameSHIYAN 10 (SY-10)
Epoch Orbit138
Epoch Day338.96906788
Epoch Year2021
RAAN66.3751
Inclination51.1367
Eccentricity0.7238827
Argument of Perigee235.1268
Mean Anonmoly135.9367
Mean Motion1.95931723
Decay Rate8.7E-06
L11 49258U 21087A 21338.96906788 .00000870 00000+0 29821-1 0 9993
L22 49258 51.1367 66.3751 7238827 235.1268 135.9367 1.95931723 1381

Live tracking and technical data element details for SHIYAN 10 (SY-10) (NORAD 49258). SHIYAN 10 (SY-10) can be tracked NOW for your location showing map with azimuth and elevation plus other details from your city location.

Track the satellite on the map from your city or location and see movement details for azimuth, elevation, latitude, longitude, range, height, and movement on the map or in text.







IsCatalogInMostPopularTable: catalog: 49258, numindb: 63
Update: records affected: 1



GetName: 49258 SHIYAN 10 (SY-10)

Hit Count: updated at: Mon, 06 Dec 2021 14:18:12 GMT